[[{"header":{"parameterUnit":"m.s-1","parameterCategory":1,"la1":30.2991,"la2":30.254,"lo1":-89.0895,"lo2":-89.0444,"dy":0.0017,"dx":0.0017,"nx":28,"ny":28,"refTime":"2025-06-11T09:00:00:Z","depth":0,"parameterNumber":2,"parameterNumberName":"U-component_of_WINDS"},"data":[0,0,0,0,0,0,0,0,0,0,0,0,0,0,0,0,0,0,0,0,0,0,0,0,0,0,0,0,0,0,0,0,0,0,0,0,0,0,0,0,0,0,0,0,0,0,0,0,0,0,0,0,0,0,0,0,0,0,-2.546,-2.546,0,-2.545,-2.545,-2.545,-2.5415,-2.5414,-2.5413,-2.5413,-2.5402,-2.5403,-2.5403,0,0,0,0,0,0,0,0,0,0,0,0,0,-2.545,-2.545,-2.546,-2.546,-2.546,-2.545,-2.545,-2.545,-2.5415,-2.5414,-2.5413,-2.5412,-2.5402,-2.5403,-2.5403,0,0,0,0,0,0,0,0,0,0,0,0,0,-2.5449,-2.545,-2.546,-2.5441,-2.544,-2.545,-2.545,-2.545,-2.5415,-2.5414,-2.5413,-2.5412,-2.5402,-2.5403,-2.5403,-2.5432,0,0,-2.5406,-2.5406,0,0,0,0,0,0,0,0,-2.5449,-2.5449,-2.5444,-2.5443,-2.5441,-2.5433,-2.5443,-2.5444,-2.5416,-2.5425,-2.5413,-2.5411,-2.5413,-2.5413,-2.5414,-2.5431,-2.5431,-2.5406,-2.5406,-2.5406,-2.5407,0,0,0,0,0,0,0,-2.5449,-2.5449,-2.5456,-2.5444,-2.5442,-2.5434,-2.5432,-2.5443,-2.5426,-2.5424,-2.5421,-2.542,-2.5412,-2.5413,-2.5413,-2.543,-2.5406,-2.5406,-2.5407,-2.5407,-2.5471,-2.5472,0,0,0,0,0,0,-2.5452,-2.545,-2.5457,-2.5456,-2.5442,-2.5435,-2.5433,-2.5436,-2.5426,-2.5423,-2.5421,-2.5419,-2.5413,-2.5413,-2.5413,-2.5445,-2.5406,-2.5407,-2.5407,-2.547,-2.5471,-2.5473,0,0,0,0,0,0,-2.5452,-2.5453,-2.5457,-2.5452,-2.5452,-2.5436,-2.544,-2.5437,-2.5438,-2.5424,-2.5421,-2.5426,-2.5412,-2.5412,-2.5427,-2.5444,-2.5407,-2.5408,-2.5468,-2.547,-2.5472,-2.5509,0,0,0,0,0,0,-2.5451,-2.5453,-2.5463,-2.5453,-2.5452,-2.5471,-2.5441,-2.5438,-2.5439,-2.5436,-2.5427,-2.5424,-2.5411,-2.5426,-2.5428,-2.5444,-2.5408,-2.5467,-2.5469,-2.5471,-2.5507,-2.5512,-2.5517,0,0,0,0,0,-2.5451,-2.5474,-2.5463,-2.5464,-2.5465,-2.5472,-2.5472,-2.5456,-2.5441,-2.5451,-2.5442,-2.5425,-2.5443,-2.5428,-2.543,-2.5447,-2.5465,-2.5468,-2.5471,-2.5504,-2.5511,-2.5517,0,0,0,0,0,0,-2.5485,-2.5472,-2.546,-2.548,-2.5478,-2.5466,-2.5478,-2.5464,-2.5466,-2.5463,-2.5443,-2.5441,-2.546,-2.5455,-2.5439,-2.5474,-2.5451,-2.5454,-2.5476,-2.5482,-2.5488,-2.5488,-2.5409,0,0,0,0,0,-2.5496,-2.5503,-2.549,-2.5509,-2.5509,-2.5494,-2.5497,-2.5485,-2.5482,-2.548,-2.5473,-2.547,-2.5475,-2.5479,-2.5483,-2.5507,-2.5504,-2.5519,-2.5524,-2.5529,-2.5531,-2.5544,-2.555,-2.5482,-2.5482,-2.5482,0,0,-2.5516,-2.5509,-2.5515,-2.5516,-2.5513,-2.5521,-2.5493,-2.5503,-2.5509,-2.5482,-2.5495,-2.549,-2.5486,-2.5506,-2.5514,-2.5503,-2.555,-2.5533,-2.5536,-2.5536,-2.5548,-2.5554,-2.556,-2.5484,-2.5484,-2.5483,0,0,-2.5557,-2.5553,-2.5568,-2.5566,-2.5561,-2.5552,-2.5556,-2.5547,-2.5543,-2.5557,-2.5537,-2.5544,-2.5553,-2.5551,-2.5551,-2.5594,-2.5578,-2.5596,-2.5623,-2.5636,-2.5641,-2.5646,-2.5661,-2.5666,-2.5599,-2.5599,-2.5599,0,-2.5582,-2.5594,-2.5578,-2.5589,-2.559,-2.5567,-2.5582,-2.5581,-2.5578,-2.558,-2.5567,-2.5579,-2.5574,-2.5593,-2.5604,-2.5605,-2.5609,-2.5596,-2.5642,-2.5646,-2.565,-2.5664,-2.567,-2.5601,-2.5601,-2.5601,-2.5601,0,-2.5625,-2.5634,-2.5647,-2.5645,-2.5648,-2.5661,-2.5647,-2.5653,-2.5641,-2.5633,-2.5648,-2.5643,-2.5645,-2.565,-2.5638,-2.5668,-2.566,-2.5645,-2.5622,-2.5659,-2.5672,-2.5677,-2.5604,-2.5604,-2.5603,-2.5602,0,0,-2.5685,-2.5676,-2.5681,-2.568,-2.5675,-2.5681,-2.5694,-2.5697,-2.5701,-2.5701,-2.5711,-2.5721,-2.5707,-2.5707,-2.5696,-2.5707,-2.5741,-2.5691,-2.569,-2.57,-2.5773,-2.5784,-2.579,-2.5732,-2.5733,-2.5733,-2.5773,0,-2.5723,-2.5744,-2.5731,-2.5754,-2.5762,-2.5741,-2.5753,-2.5751,-2.5745,-2.5751,-2.5744,-2.575,-2.5732,-2.5732,-2.5743,-2.5735,-2.5756,-2.5732,-2.574,-2.5741,-2.574,-2.5797,-2.5807,-2.5845,-2.5778,-2.5779,-2.578,0,-2.577,-2.5772,-2.5796,-2.579,-2.5793,-2.5803,-2.5805,-2.5811,-2.581,-2.5804,-2.5806,-2.5792,-2.5805,-2.5784,-2.5801,-2.5785,-2.5788,-2.5786,-2.5787,-2.5785,-2.5761,-2.5796,-2.5857,-2.5862,-2.5787,-2.5787,-2.5786,0,-2.581,-2.5819,-2.5835,-2.5835,-2.5829,-2.5837,-2.5834,-2.5831,-2.5834,-2.5837,-2.5839,-2.5843,-2.5844,-2.5848,-2.5836,-2.5822,-2.5855,-2.5833,-2.5851,-2.5851,-2.5857,-2.5856,-2.5918,-2.5862,-2.5861,-2.5861,-2.5861,0,-2.5853,-2.5868,-2.5853,-2.5862,-2.5879,-2.5865,-2.5882,-2.5878,-2.5876,-2.5884,-2.5867,-2.5876,-2.586,-2.5867,-2.5859,-2.5874,-2.5875,-2.5871,-2.5869,-2.5872,-2.5872,-2.5872,-2.5869,-2.5863,-2.5862,-2.5862,-2.5862,0,-2.59,-2.589,-2.5906,-2.5899,-2.5898,-2.5911,-2.5905,-2.5914,-2.5908,-2.5919,-2.592,-2.591,-2.5918,-2.5907,-2.5913,-2.5907,-2.5929,-2.5923,-2.5929,-2.5927,-2.5945,-2.5943,-2.6007,-2.6015,-2.5955,-2.5956,-2.5956,0,-2.5927,-2.5938,-2.5934,-2.5938,-2.5937,-2.5945,-2.5948,-2.5935,-2.594,-2.5939,-2.5948,-2.5955,-2.5959,-2.5972,-2.5965,-2.597,-2.5963,-2.5986,-2.5964,-2.5967,-2.5962,-2.5961,-2.5962,-2.5989,-2.599,-2.5991,-2.5991,0,-2.5976,-2.5971,-2.5977,-2.5981,-2.5986,-2.5988,-2.599,-2.5995,-2.5981,-2.5987,-2.5995,-2.5998,-2.6005,-2.6012,-2.6016,-2.6014,-2.6,-2.5999,-2.6003,-2.6005,-2.6008,-2.6006,-2.594,-2.5997,-2.5996,-2.5996,-2.5995,-2.5995,-2.6013,-2.6022,-2.6021,-2.6028,-2.6028,-2.603,-2.6038,-2.6033,-2.6039,-2.6044,-2.6037,-2.6047,-2.6046,-2.6049,-2.6049,-2.6057,-2.6047,-2.6054,-2.6055,-2.6056,-2.6059,-2.6009,-2.6058,-2.6058,-2.6058,-2.6057,-2.6057,0,-2.606,-2.6059,-2.6066,-2.6069,-2.6074,-2.6063,-2.6064,-2.607,-2.6078,-2.6079,-2.6084,-2.6094,-2.61,-2.6095,-2.6101,-2.6108,-2.6102,-2.611,-2.6108,-2.6108,-2.6068,-2.6063,-2.6114,-2.6114,-2.6114,-2.6114,-2.6114,-2.6114,-2.6085,-2.6101,-2.6096,-2.6112,-2.611,-2.612,-2.6122,-2.6124,-2.6124,-2.6135,-2.6141,-2.6138,-2.6136,-2.6142,-2.6148,-2.6146,-2.6149,-2.6158,-2.6154,-2.6116,-2.6111,-2.6105,-2.6101,-2.6159,-2.6159,-2.6194,-2.6194,-2.6195]},{"header":{"parameterUnit":"m.s-1","parameterCategory":1,"la1":30.2991,"la2":30.254,"lo1":-89.0895,"lo2":-89.0444,"dy":0.0017,"dx":0.0017,"nx":28,"ny":28,"refTime":"2025-06-11T09:00:00:Z","depth":0,"parameterNumber":3,"parameterNumberName":"V-component_of_WINDS"},"data":[0,0,0,0,0,0,0,0,0,0,0,0,0,0,0,0,0,0,0,0,0,0,0,0,0,0,0,0,0,0,0,0,0,0,0,0,0,0,0,0,0,0,0,0,0,0,0,0,0,0,0,0,0,0,0,0,0,0,1.6568,1.6567,0,1.6537,1.6537,1.6536,1.6516,1.6516,1.6515,1.6515,1.6483,1.6482,1.6481,0,0,0,0,0,0,0,0,0,0,0,0,0,1.6607,1.6606,1.6568,1.6567,1.6567,1.6537,1.6537,1.6536,1.6516,1.6516,1.6515,1.6515,1.6483,1.6482,1.6481,0,0,0,0,0,0,0,0,0,0,0,0,0,1.6585,1.6606,1.6568,1.6553,1.6551,1.6537,1.6537,1.6536,1.6516,1.6516,1.6515,1.6515,1.6483,1.6482,1.6481,1.6479,0,0,1.6478,1.6477,0,0,0,0,0,0,0,0,1.6586,1.6583,1.6556,1.6554,1.6552,1.653,1.6539,1.6517,1.6516,1.6529,1.6515,1.6515,1.6498,1.6496,1.6491,1.6477,1.6476,1.6478,1.6477,1.6476,1.6476,0,0,0,0,0,0,0,1.6587,1.6584,1.6556,1.6555,1.6553,1.6548,1.6544,1.6534,1.6515,1.6528,1.6527,1.6523,1.6497,1.6492,1.649,1.6475,1.6478,1.6477,1.6476,1.6475,1.6458,1.6458,0,0,0,0,0,0,1.6592,1.6586,1.6557,1.6555,1.6569,1.6547,1.6543,1.6537,1.6515,1.6512,1.6523,1.6522,1.6494,1.6491,1.6489,1.6484,1.6476,1.6475,1.6475,1.6458,1.6458,1.6458,0,0,0,0,0,0,1.6592,1.6589,1.6558,1.657,1.6565,1.6547,1.654,1.6537,1.6531,1.6512,1.6508,1.6521,1.6494,1.649,1.6481,1.6483,1.6475,1.6474,1.6457,1.6458,1.6458,1.6476,0,0,0,0,0,0,1.6594,1.659,1.6589,1.657,1.6565,1.6551,1.654,1.6536,1.653,1.6528,1.6509,1.6506,1.6493,1.6483,1.648,1.6481,1.6473,1.6457,1.6457,1.6458,1.6475,1.6477,1.6478,0,0,0,0,0,1.6595,1.6595,1.6589,1.6585,1.6563,1.6551,1.6548,1.6534,1.653,1.6529,1.6516,1.6506,1.6483,1.6482,1.6479,1.648,1.6457,1.6457,1.6458,1.6474,1.6476,1.6478,0,0,0,0,0,0,1.6614,1.6592,1.6585,1.6579,1.6567,1.6548,1.6546,1.6537,1.6526,1.6525,1.6508,1.6504,1.6497,1.6487,1.6487,1.6476,1.6469,1.6469,1.6483,1.6484,1.6486,1.6488,1.6472,0,0,0,0,0,1.6617,1.661,1.6591,1.6587,1.6581,1.6565,1.6559,1.6549,1.6537,1.6531,1.6518,1.6506,1.6496,1.649,1.6479,1.6474,1.6469,1.6472,1.6474,1.6475,1.6475,1.6472,1.6473,1.6459,1.6459,1.6459,0,0,1.6624,1.6611,1.6607,1.659,1.658,1.6572,1.6561,1.6553,1.6547,1.653,1.6521,1.6511,1.6496,1.6489,1.6485,1.6481,1.6478,1.6476,1.6477,1.6476,1.6472,1.6474,1.6475,1.646,1.646,1.646,0,0,1.6632,1.6622,1.6618,1.6608,1.6593,1.6582,1.6581,1.6563,1.6556,1.6547,1.6534,1.6526,1.6509,1.6499,1.6492,1.6497,1.6487,1.6494,1.6502,1.6499,1.65,1.6501,1.6502,1.6503,1.6494,1.6494,1.6494,0,1.6642,1.6631,1.6616,1.661,1.6602,1.6587,1.6582,1.6573,1.6556,1.6551,1.6547,1.6525,1.6514,1.6504,1.6506,1.65,1.6498,1.6496,1.6501,1.6502,1.6502,1.6504,1.6504,1.6495,1.6495,1.6495,1.6495,0,1.6644,1.6636,1.6634,1.6618,1.6611,1.6605,1.659,1.6584,1.6575,1.6564,1.6555,1.6541,1.6528,1.6524,1.6515,1.6513,1.6511,1.6504,1.6496,1.6505,1.6506,1.6506,1.6496,1.6496,1.6496,1.6495,0,0,1.6663,1.6639,1.6639,1.6632,1.6614,1.6607,1.6601,1.6588,1.6584,1.6572,1.6566,1.6552,1.6546,1.6537,1.6527,1.6524,1.6529,1.6517,1.6516,1.652,1.6526,1.6531,1.6532,1.6522,1.6522,1.6522,1.6527,0,1.6669,1.6657,1.6644,1.6636,1.6629,1.6614,1.6609,1.6597,1.6587,1.6579,1.6567,1.6558,1.655,1.6545,1.6541,1.6529,1.653,1.6528,1.6516,1.6516,1.6521,1.6533,1.6539,1.6544,1.6527,1.6527,1.6528,0,1.6674,1.6664,1.6656,1.6639,1.6635,1.6631,1.6618,1.661,1.6597,1.659,1.6581,1.657,1.6562,1.6555,1.6544,1.6544,1.6538,1.6531,1.6531,1.6529,1.6522,1.6532,1.6545,1.6546,1.6528,1.6528,1.6528,0,1.6689,1.6673,1.6666,1.666,1.664,1.6637,1.6629,1.6615,1.6609,1.6598,1.6593,1.6581,1.6575,1.6565,1.6551,1.6548,1.6542,1.6534,1.6535,1.6536,1.6535,1.6535,1.6548,1.6531,1.6531,1.6531,1.6531,0,1.6697,1.6693,1.6673,1.6668,1.6663,1.6648,1.6643,1.6633,1.6621,1.6614,1.6601,1.6595,1.6577,1.6568,1.6557,1.655,1.6547,1.6541,1.6538,1.6542,1.6543,1.6538,1.6537,1.6531,1.6531,1.6531,1.6531,0,1.6713,1.6699,1.6691,1.6673,1.6668,1.6665,1.665,1.6645,1.6634,1.6626,1.6623,1.6606,1.6596,1.6581,1.6566,1.6559,1.6553,1.6548,1.6557,1.6556,1.6558,1.6558,1.6568,1.6569,1.6552,1.6552,1.6552,0,1.6719,1.6715,1.6697,1.6692,1.6684,1.6676,1.6669,1.6654,1.6648,1.6632,1.6629,1.6618,1.6608,1.6592,1.6578,1.6567,1.6562,1.6566,1.656,1.6564,1.6562,1.6562,1.6562,1.6567,1.6568,1.6568,1.6568,0,1.6731,1.6724,1.6716,1.6704,1.6697,1.6687,1.6677,1.6673,1.6656,1.6649,1.6638,1.6631,1.6616,1.6605,1.6591,1.6582,1.6572,1.657,1.657,1.6574,1.658,1.6577,1.6562,1.657,1.657,1.657,1.6569,1.6569,1.6742,1.6738,1.6725,1.6716,1.6706,1.6697,1.6692,1.668,1.6672,1.6658,1.665,1.664,1.6626,1.6607,1.6599,1.6591,1.6586,1.6586,1.6586,1.6586,1.6588,1.6581,1.6588,1.6588,1.6588,1.6588,1.6588,0,1.6754,1.6745,1.6736,1.6722,1.6715,1.6706,1.6694,1.6689,1.668,1.6669,1.6659,1.6647,1.6637,1.6622,1.661,1.6606,1.6601,1.6604,1.6604,1.6602,1.6592,1.6594,1.6608,1.6608,1.6608,1.6608,1.6608,1.6608,1.6759,1.6752,1.6744,1.6732,1.6723,1.6714,1.6707,1.6699,1.6689,1.6677,1.6668,1.6659,1.6646,1.6633,1.6623,1.6619,1.6615,1.6619,1.6613,1.6604,1.6603,1.6601,1.6602,1.6618,1.6618,1.6624,1.6624,1.6624]}]]